星链-3746 (STARLINK-3746 )

导读 | 豆包AI

STARLINK-3746是美国SpaceX公司星链星座的成员,于2022年4月21日发射升空。星链是全球规模最大的低轨卫星互联网星座,旨在为全球提供高速宽带服务,该卫星作为星链组网的一部分,承担太空通信中继任务。星链星座目前已完成数轮部署,在轨卫星超九千颗,终端用户覆盖全球数十个国家,商业模式已实现闭环,推动了全球卫星互联网产业的发展。

基本信息
目录编号:
52268
目录名称:
STARLINK-3746
国际标识:
2022-041H
轨道中心:
EARTH
卫星名称:
星链-3746
卫星全名:
星链-3746 (STARLINK-3746 )
卫星状态:
在轨 (已飞行1470 天)
发射日期:
2022-04-21 UTC
国别 :
美国 (US)
星等 :
--
轨道信息
数据来源 国际轨道数据 AOE轨道数据
星历时间 2026-04-30T22:39:52+0800
8小时前
查看轨道信息
2026-04-28T08:00:00+0800
2天前
查看轨道信息
半长轴 6917.873km 6917.89km
偏心率 0.0001271 0.0001358
轨道倾角 53.218° 53.214°
近地点辐角 92.104° 116.913°
升交点赤经 235.959° 247.682°
平近点角 268.010° 92.910°
近地点 538.856km 538.813km
远地点 540.616km 540.693km
周期 95.437分钟 95.438分钟
每日圈数 15.088425 15.088369
详细信息
固有亮度:
5
最大亮度:
2.5
卫星平台:
Starlink v1.5
覆盖范围:
全球
运营商:
太空探索技术公司
运营商所在国:
美国
制造商(研发单位):
太空探索技术公司
制造商所在国:
美国
使用方式:
暂无
卫星简介
星链(Starlink)计划是由太空探索技术公司(SpaceX)提出的一个巨型低轨卫星互联网星座项目,计划在2019年至2024年间在太空搭建由约1.2万颗卫星组成的“星链”网络,其中1584颗将部署在地球上空550千米处的近地轨道,并从2020年开始工作。该卫星仍在工作。
2D轨道图
3D轨道图
轨道高度分析图
轨道倾角分析图
轨道综合分析图
查看轨道综合分析图